(337674) = 2001 TU185

Discovered at Socorro on 2001-10-14 by LINEAR.

Orbit

Orbit type: Main Belt

Note: WebGL enabled browser required.

epoch2023-09-13.0
epoch JD2460200.5
perihelion date2023-07-02.64075
perihelion JD2460128.14075
argument of perihelion (°)308.76898
ascending node (°)12.09960
inclination (°)11.82945
eccentricity0.1720842
perihelion distance (AU)1.9821165
Tisserand w.r.t. Jupiter3.5
ΔV w.r.t. Earth (km/sec)9.5
semimajor axis (AU)2.3941039
mean anomaly (°)19.25233
mean daily motion (°/day)0.26606600
aphelion distance (AU)2.806
period (years)3.7
P-vector [x]0.77222947
P-vector [y]-0.50059144
P-vector [z]-0.39124143
Q-vector [x]0.63388896
Q-vector [y]0.64869950
Q-vector [z]0.42115763
absolute magnitude16.58
phase slope0.15
uncertainty0
referenceMPEC 2024-A34
observations used464
oppositions13
arc length (days)8113
first opposition used2001
last opposition used2023
residual rms (arc-secs)0.70
perturbers coarse indicatorM-v
perturbers precise indicator003Ek
first observation date used2001-09-20.0
last observation date used2023-12-07.0
computer nameMPCLINUX
JD of orbit computation2456731.452995
perihelion JD uncertainty (days)8.8039E-05
argument of perihelion uncertainty (°)3.5087E-05
ascending node uncertainty (°)2.6142E-05
inclination uncertainty (°)9.9628E-06
eccentricity uncertainty 7.1374E-08
perihelion distance uncertainty (AU)1.7186E-07
Minimum Orbit Intersection Distances (in AU)
for orbit epoch: 2460200.5, reference: E2024-A34
Mercury1.55983
Venus1.25999
Earth0.99359
Mars0.62853
Jupiter2.58909
Saturn6.41785
Uranus15.6865
Neptune27.5004

Observations

477 total observations over interval: 2001 09 20.39796 – 2023 12 07.097669
These data are available for download (format description).

Date (UT) J2000 RA J2000 Dec Magn Location Ref
2001 09 20.39796 02 20 47.50 +17 01 29.5 19.4   704 – Lincoln Laboratory ETS, New Mexico MPS 44346
2001 09 20.41203 02 20 46.98 +17 01 33.9 19.1   704 – Lincoln Laboratory ETS, New Mexico MPS 44346
2001 09 20.42610 02 20 46.47 +17 01 38.2 19.2   704 – Lincoln Laboratory ETS, New Mexico MPS 44346
2001 09 20.44017 02 20 45.97 +17 01 42.3 19.6   704 – Lincoln Laboratory ETS, New Mexico MPS 44346
2001 10 14.26714 01 58 53.41 +18 22 31.3 20.5   704 – Lincoln Laboratory ETS, New Mexico MPS 40974
2001 10 14.28335 01 58 52.18 +18 22 32.5 20.0   704 – Lincoln Laboratory ETS, New Mexico MPS 40974
2001 10 14.29901 01 58 51.04 +18 22 34.1 19.4   704 – Lincoln Laboratory ETS, New Mexico MPS 40974
2001 10 14.31466 01 58 49.90 +18 22 34.8 19.3   704 – Lincoln Laboratory ETS, New Mexico MPS 40974
2001 10 21.25141 01 50 28.94 +18 29 05.1 19.2   704 – Lincoln Laboratory ETS, New Mexico MPS 40974
2001 10 21.28540 01 50 26.43 +18 29 06.4 19.2   704 – Lincoln Laboratory ETS, New Mexico MPS 40974
2001 10 21.30203 01 50 25.12 +18 29 07.1 19.3   704 – Lincoln Laboratory ETS, New Mexico MPS 40974
2001 10 21.31844 01 50 23.88 +18 29 08.0 19.6   704 – Lincoln Laboratory ETS, New Mexico MPS 40974
2001 10 23.23323 01 48 04.96 +18 29 42.0 19.7 V 333 – Desert Eagle Observatory MPS 44346
2001 10 23.23461 01 48 04.78 +18 29 42.0 19.4 V 333 – Desert Eagle Observatory MPS 44346
2001 10 23.25904 01 48 02.97 +18 29 42.1 19.3 V 333 – Desert Eagle Observatory MPS 44346
2001 10 23.26043 01 48 02.85 +18 29 42.3 19.1 V 333 – Desert Eagle Observatory MPS 44346
2001 10 23.28073 01 48 01.38 +18 29 41.6 19.6 V 333 – Desert Eagle Observatory MPS 44346
2001 10 23.28207 01 48 01.26 +18 29 42.0 19.3 V 333 – Desert Eagle Observatory MPS 44346
2001 11 11.17606 01 27 44.47 +18 18 18.8 19.2 R 699 – Lowell Observatory-LONEOS MPS 44346
2001 11 11.19969 01 27 43.07 +18 18 17.0   699 – Lowell Observatory-LONEOS MPS 44346
2001 11 11.22311 01 27 41.84 +18 18 15.7   699 – Lowell Observatory-LONEOS MPS 44346
2001 11 11.24652 01 27 40.53 +18 18 13.6   699 – Lowell Observatory-LONEOS MPS 44346
2008 06 07.66543 21 23 38.97 -35 00 53.5 19.4 V E12 – Siding Spring Survey MPS 252717
2008 06 07.67127 21 23 39.19 -35 00 56.0 20.0 V E12 – Siding Spring Survey MPS 252717
2008 06 07.67659 21 23 39.40 -35 00 57.6 19.2 V E12 – Siding Spring Survey MPS 252717
2008 06 07.68215 21 23 39.58 -35 00 59.1 18.9 V E12 – Siding Spring Survey MPS 252717
2008 06 28.59646 21 30 03.70 -36 51 55.8 19.0 V E12 – Siding Spring Survey MPS 252717
2008 06 28.59832 21 30 03.63 -36 51 56.9 19.0 V E12 – Siding Spring Survey MPS 252717
2008 06 28.60749 21 30 03.56 -36 51 59.2 19.3 V E12 – Siding Spring Survey MPS 252717
2008 06 28.60929 21 30 03.56 -36 52 00.4 19.0 V E12 – Siding Spring Survey MPS 252717
2008 06 28.62046 21 30 03.45 -36 52 04.8 19.0 V E12 – Siding Spring Survey MPS 252717
2008 06 28.63006 21 30 03.38 -36 52 08.4 19.1 V E12 – Siding Spring Survey MPS 252717
2008 06 28.63199 21 30 03.34 -36 52 09.9 18.9 V E12 – Siding Spring Survey MPS 252717
2008 07 14.57226 21 22 46.95 -38 20 27.8 18.4 V E12 – Siding Spring Survey MPS 252717
2008 07 14.58221 21 22 46.59 -38 20 31.5 19.0 V E12 – Siding Spring Survey MPS 252717
2008 07 14.59211 21 22 46.02 -38 20 34.5 18.4 V E12 – Siding Spring Survey MPS 252717
2008 08 03.58082 21 02 02.00 -39 04 28.2 18.3 V E12 – Siding Spring Survey MPS 253491
2008 08 03.59111 21 02 01.24 -39 04 27.8 18.2 V E12 – Siding Spring Survey MPS 253491
2008 08 03.60124 21 02 00.45 -39 04 27.2 17.8 V E12 – Siding Spring Survey MPS 253491
2008 08 26.53105 20 38 52.44 -37 11 04.0 19.1 V E12 – Siding Spring Survey MPS 254407
2008 08 26.53877 20 38 52.08 -37 11 00.4 19.0 V E12 – Siding Spring Survey MPS 254407
2008 08 26.54634 20 38 51.72 -37 10 56.3 19.1 V E12 – Siding Spring Survey MPS 254407
2010 03 22.030832 06 37 13.762 +35 54 16.06   C51 – WISE MPS 904101
2010 03 22.295441 06 37 25.577 +35 52 48.72   C51 – WISE MPS 904101
2010 03 22.427744 06 37 32.040 +35 52 06.49   C51 – WISE MPS 904101
2010 03 22.890873 06 37 53.441 +35 49 27.16   C51 – WISE MPS 904101
2011 02 25.43046 13 21 37.15 -06 32 53.1 20.7 V G96 – Mt. Lemmon Survey MPS 371405
2011 02 25.43732 13 21 37.00 -06 32 53.6 20.5 V G96 – Mt. Lemmon Survey MPS 371405
2011 02 25.44425 13 21 36.86 -06 32 54.3 20.7 V G96 – Mt. Lemmon Survey MPS 371405
2011 02 25.45118 13 21 36.72 -06 32 54.5 21.4 V G96 – Mt. Lemmon Survey MPS 371405
2011 03 08.38783 13 16 02.68 -06 39 36.5   691 – Steward Observatory, Kitt Peak-Spacewatch MPS 373362
2011 03 08.40551 13 16 01.88 -06 39 36.0   691 – Steward Observatory, Kitt Peak-Spacewatch MPS 373362
2011 03 08.42320 13 16 01.17 -06 39 36.5   691 – Steward Observatory, Kitt Peak-Spacewatch MPS 373362
2011 03 14.48646 13 11 33.93 -06 37 40.4 20.0 V G96 – Mt. Lemmon Survey MPS 374775
2011 03 14.48873 13 11 33.79 -06 37 39.7 20.1 V G96 – Mt. Lemmon Survey MPS 374775
2011 03 14.49104 13 11 33.68 -06 37 40.1 19.9 V G96 – Mt. Lemmon Survey MPS 374775
2011 03 14.49338 13 11 33.57 -06 37 39.9 19.9 V G96 – Mt. Lemmon Survey MPS 374775
2011 03 30.32696 12 56 26.62 -06 17 27.3 19.8 V G96 – Mt. Lemmon Survey MPS 375474
2011 03 30.33340 12 56 26.23 -06 17 26.7 19.6 V G96 – Mt. Lemmon Survey MPS 375474
2011 03 30.33980 12 56 25.80 -06 17 25.9 19.6 V G96 – Mt. Lemmon Survey MPS 375474
2011 03 30.34619 12 56 25.36 -06 17 25.3 19.5 V G96 – Mt. Lemmon Survey MPS 375474
2011 04 03.45275 12 51 59.402 -06 09 43.26 20.2 w F51 – Pan-STARRS 1, Haleakala MPS 377087
2011 04 03.46859 12 51 58.334 -06 09 41.44 20.0 w F51 – Pan-STARRS 1, Haleakala MPS 377087
2011 04 03.48246 12 51 57.396 -06 09 39.85 19.8 w F51 – Pan-STARRS 1, Haleakala MPS 377087
2011 04 05.18672 12 50 05.98 -06 06 21.6 19.4 R H15 – ISON-NM Observatory, Mayhill MPS 377087
2011 04 05.20026 12 50 05.05 -06 06 19.7 19.4 R H15 – ISON-NM Observatory, Mayhill MPS 377087
2011 04 05.21524 12 50 04.02 -06 06 17.7 19.5 R H15 – ISON-NM Observatory, Mayhill MPS 377087
2011 04 05.22880 12 50 03.09 -06 06 15.8 19.6 R H15 – ISON-NM Observatory, Mayhill MPS 377087
2012 09 14.34906 01 03 03.02 +03 22 32.4 18.9 V 703 – Catalina Sky Survey MPS 431315
2012 09 14.35585 01 03 02.62 +03 22 34.1 18.7 V 703 – Catalina Sky Survey MPS 431315
2012 09 14.36253 01 03 02.23 +03 22 34.7 18.6 V 703 – Catalina Sky Survey MPS 431315
2012 09 14.36925 01 03 01.90 +03 22 36.1 19.0 V 703 – Catalina Sky Survey MPS 431315
2012 09 15.31370 01 02 08.95 +03 24 40.6 19.3   704 – Lincoln Laboratory ETS, New Mexico MPS 431846
2012 09 15.32780 01 02 08.10 +03 24 41.2 19.2   704 – Lincoln Laboratory ETS, New Mexico MPS 431846
2012 09 15.34186 01 02 07.31 +03 24 44.4 19.4   704 – Lincoln Laboratory ETS, New Mexico MPS 431846
2012 09 15.35596 01 02 06.47 +03 24 45.5 20.0   704 – Lincoln Laboratory ETS, New Mexico MPS 431846
2012 09 15.37007 01 02 05.66 +03 24 47.5 20.2   704 – Lincoln Laboratory ETS, New Mexico MPS 431846
2012 09 17.24801 01 00 16.47 +03 28 43.6 19.6 V 691 – Steward Observatory, Kitt Peak-Spacewatch MPS 431846
2012 09 17.26572 01 00 15.38 +03 28 45.5 19.1 V 691 – Steward Observatory, Kitt Peak-Spacewatch MPS 431846
2012 09 17.28345 01 00 14.28 +03 28 48.1 19.0 V 691 – Steward Observatory, Kitt Peak-Spacewatch MPS 431846
2012 09 19.31978 00 58 09.82 +03 32 45.7 18.7   704 – Lincoln Laboratory ETS, New Mexico MPS 431846
2012 09 19.33414 00 58 08.91 +03 32 47.5 18.7   704 – Lincoln Laboratory ETS, New Mexico MPS 431846
2012 09 19.34858 00 58 07.90 +03 32 50.2 19.1   704 – Lincoln Laboratory ETS, New Mexico MPS 431846
2012 09 19.36287 00 58 06.94 +03 32 50.9 19.4   704 – Lincoln Laboratory ETS, New Mexico MPS 431846
2012 09 19.37737 00 58 06.03 +03 32 52.6 19.4   704 – Lincoln Laboratory ETS, New Mexico MPS 431846
2012 09 21.22925 00 56 09.07 +03 36 15.2 19.5 V 691 – Steward Observatory, Kitt Peak-Spacewatch MPS 431846
2012 09 21.24439 00 56 08.05 +03 36 16.7 19.2 V 691 – Steward Observatory, Kitt Peak-Spacewatch MPS 431846
2012 09 21.25959 00 56 07.03 +03 36 18.4 19.0 V 691 – Steward Observatory, Kitt Peak-Spacewatch MPS 431846
2012 09 22.25390 00 55 02.45 +03 38 02.5 18.9   704 – Lincoln Laboratory ETS, New Mexico MPS 433307
2012 09 22.26861 00 55 01.46 +03 38 04.6 19.6   704 – Lincoln Laboratory ETS, New Mexico MPS 433307
